Flag for Germany Weather past 2 weeks in Coesfeld, North Rhine-Westphalia, Germany

Now
59 °F

Cool.


Feels Like: 58 °F
Forecast: 52 / 65 °F
Wind: 8 mph from West

Location: Rheine-Bentlage

Current Time: Sep 1, 2015 at 9:13:39 PM

Latest Report: Sep 1, 2015 at 8:20 PM


Visibility: N/A

Pressure: 29.98 "Hg

Humidity: 77%

Dew point: 52 °F

Location of CoesfeldLocation

Historic Weather in Coesfeld — Graph

°F

Coesfeld temperature yesterday

Maximum temperature yesterday: 86 °F (at 4:20 PM)
Minimum temperature yesterday: 64 °F (at 6:20 AM)
Average temperature yesterday: 74 °F

Past Weeks' High & Low Weather Summary

 TemperatureHumidityPressure
High86 °F (Aug 31, 4:20 PM)100% (Aug 17, 8:20 PM)30.27 "Hg (Aug 17, 8:20 PM)
Low48 °F (Aug 29, 4:20 AM)34% (Aug 22, 4:20 PM)29.50 "Hg (Aug 24, 6:20 PM)
Average64 °F77%29.96 "Hg
* Reported Aug 17 7:20 PM — Sep 1 7:20 PM, Coesfeld, Weather by CustomWeather, © 2015

Note: Actual official high and low records may vary slightly from our data, if they occured in-between our weather recording intervals... More about our weather records

Advertising

Coesfeld weather history for previous 24 hours

 ConditionsComfort  
Time TempWeatherWind HumidityBarometerVisibility
7:20 PM
Tue, Sep 1
63 °FMild.12 mph68%29.95 "HgN/A
6:20 PM63 °FMild.10 mph73%29.92 "HgN/A
5:20 PM64 °FMild.10 mph73%29.92 "HgN/A
4:20 PM63 °FMild.9 mph77%29.89 "HgN/A
3:20 PM61 °FPartly sunny.8 mph88%29.89 "HgN/A
2:20 PM61 °FBroken clouds.8 mph88%29.89 "HgN/A
1:20 PM61 °FBroken clouds.6 mph94%29.86 "Hg5 mi
12:20 PM61 °FDrizzle. Broken clouds.5 mph94%29.86 "Hg4 mi
11:20 AM61 °FDrizzle. Broken clouds.5 mph94%29.86 "Hg5 mi
10:20 AM61 °FLight rain. Broken clouds.6 mph94%29.83 "HgN/A
9:20 AM61 °FDrizzle. Broken clouds.8 mph94%29.83 "Hg5 mi
8:20 AM61 °FBroken clouds.8 mph94%29.80 "HgN/A
7:20 AM61 °FPassing clouds.10 mph94%29.80 "Hg4 mi
6:54 AM63 °FPassing clouds.10 mph94%29.80 "Hg4 mi
6:20 AM63 °FLight rain. Partly cloudy.14 mph94%29.80 "HgN/A
5:20 AM64 °FPassing clouds.9 mph88%29.77 "HgN/A
4:20 AM66 °FMild.9 mph83%29.77 "HgN/A
3:20 AM66 °FMild.8 mph83%29.77 "HgN/A
2:20 AM68 °FMild.10 mph88%29.77 "HgN/A
1:20 AM68 °FMild.9 mph88%29.77 "HgN/A
12:20 AM68 °FMild.7 mph94%29.77 "HgN/A
11:20 PM
Mon, Aug 31
68 °FMild.7 mph94%29.77 "HgN/A
10:20 PM70 °FMild.8 mph88%29.77 "HgN/A
9:20 PM73 °FMild.9 mph74%29.77 "HgN/A
Weather by CustomWeather, © 2015

See weather overviewHow to use our weather pages